Weather reports worldwide

Advertisment
Figari, France (7780): temperature & dewpoint: 07.07.2020 06:00:00 - 13.07.2020 06:00:00 (CEST)Figari, France (7780): temperature 5cm: 07.07.2020 06:00:00 - 13.07.2020 06:00:00 (CEST)Figari, France (7780): wind speed & gusts: 07.07.2020 06:00:00 - 13.07.2020 06:00:00 (CEST)Figari, France (7780): wind direction: 07.07.2020 06:00:00 - 13.07.2020 06:00:00 (CEST)Figari, France (7780): reduced air pressure: 07.07.2020 06:00:00 - 13.07.2020 06:00:00 (CEST)Figari, France (7780): visibility: 07.07.2020 06:00:00 - 13.07.2020 06:00:00 (CEST)Figari, France (7780): precipitation: 07.07.2020 06:00:00 - 13.07.2020 06:00:00 (CEST)
Date & Time tt [°C] td [°C] tt 5cm [°C] ff [km/h] ff [kn] fx [km/h] fx [kn] dd ppp [hPa] vv [km] rr [mm]
13.07.2020 06:00:00 18,7 18,0 17,5 5 3 9 5 E 1016,1 13 0,0
13.07.2020 05:00:00 19,2 18,2 17,5 5 3 10 5 NE 1016,1 14 0,0
13.07.2020 04:00:00 18,3 17,1 17,4 2 1 8 4 NNE 1016,4 18 0,0
13.07.2020 03:00:00 19,1 17,9 17,7 5 3 7 4 NNE 1016,5 17 0,0
13.07.2020 02:00:00 18,8 17,8 17,3 5 3 6 4 ESE 1016,6 18 0,0
13.07.2020 01:00:00 19,1 17,8 16,9 4 2 8 5 N 1016,6 15 0,0
13.07.2020 00:00:00 18,4 17,1 17,0 2 1 5 3 NNW 1017,4 19 0,0
12.07.2020 23:00:00 20,1 18,4 18,0 4 2 6 4 N 1017,2 20 0,0
12.07.2020 22:00:00 21,3 19,0 19,7 6 3 11 6 SE 1017,1 25 0,0
12.07.2020 21:00:00 23,2 20,0 22,8 7 4 22 12 SSW 1016,7 28 0,0
12.07.2020 20:00:00 25,8 19,7 24,9 13 7 23 12 SW 1016,3 33 0,0
12.07.2020 19:00:00 27,1 19,7 27,0 14 8 27 14 SSW 1016,1 36 0,0
12.07.2020 18:00:00 28,6 18,7 29,8 16 9 27 15 SSW 1016,1 50 0,0
12.07.2020 17:00:00 29,0 18,7 33,9 19 10 28 15 SSW 1016,6 17 0,0
12.07.2020 16:00:00 30,5 16,9 38,2 18 10 29 15 SSW 1016,4 51 0,0
12.07.2020 15:00:00 32,2 13,9 40,9 15 8 29 16 SSW 1016,6 20 0,0
12.07.2020 14:00:00 31,2 14,8 40,1 17 9 28 15 SW 1016,7 57 0,0
12.07.2020 13:00:00 30,5 16,9 37,2 19 11 30 16 SW 1016,6 53 0,0
12.07.2020 12:00:00 29,7 19,1 34,9 16 9 27 15 SW 1016,7 55 0,0
12.07.2020 11:00:00 28,9 20,4 30,6 15 8 25 13 SW 1016,6 57 0,0
12.07.2020 10:00:00 28,5 20,2 25,3 11 6 25 14 SSW 1016,4 19 0,0
12.07.2020 09:00:00 26,8 19,7 21,6 4 2 10 5 NE 1016,3 19 0,0
12.07.2020 08:00:00 24,5 19,6 15,7 3 1 7 4 ENE 1016,2 38 0,0
12.07.2020 07:00:00 17,8 16,7 14,0 6 3 9 5 NNE 1015,8 27 0,0
12.07.2020 06:00:00 15,8 15,0 13,9 5 3 8 4 NNE 1015,3 20 0,0
12.07.2020 05:00:00 16,5 15,4 14,7 4 2 5 3 NNE 1015,0 22 0,0
12.07.2020 04:00:00 18,1 16,8 16,1 4 2 8 5 N 1015,0 21 0,0
12.07.2020 03:00:00 19,2 17,5 17,6 2 1 10 6 NNW 1015,1 28 0,0
12.07.2020 02:00:00 21,2 19,1 19,2 5 3 21 11 E 1015,1 37 0,0
12.07.2020 01:00:00 22,3 19,5 21,0 15 8 29 15 SW 1015,5 39 0,0
12.07.2020 00:00:00 22,6 20,1 21,1 12 6 31 17 S 1015,4 38 0,0
11.07.2020 23:00:00 23,8 18,2 21,8 22 12 33 18 SW 1015,1 51 0,0
11.07.2020 22:00:00 24,2 18,8 22,0 13 7 35 19 SSW 1014,7 20 0,0
11.07.2020 21:00:00 26,3 18,7 23,9 23 12 33 18 WSW 1014,0 43 0,0
11.07.2020 20:00:00 28,2 20,5 26,0 22 12 37 20 WSW 1014,0 32 0,0
11.07.2020 19:00:00 29,3 21,0 27,9 27 15 47 25 WSW 1013,9 20 0,0
11.07.2020 18:00:00 30,6 18,7 29,6 31 17 49 26 WSW 1013,9 25 0,0
11.07.2020 17:00:00 32,0 18,9 33,0 35 19 46 25 WSW 1014,1 20 0,0
11.07.2020 16:00:00 32,9 17,1 36,3 31 17 50 27 WSW 1014,0 20 0,0
11.07.2020 15:00:00 33,7 15,7 39,2 30 16 49 26 WSW 1014,0 28 0,0
11.07.2020 14:00:00 33,0 15,9 39,9 32 18 44 24 SW 1014,1 33 0,0
11.07.2020 13:00:00 33,0 18,0 35,9 25 14 48 26 WSW 1014,5 37 0,0
11.07.2020 12:00:00 31,1 17,4 33,4 34 19 49 26 WSW 1014,5 45 0,0
11.07.2020 11:00:00 30,0 18,1 28,0 31 17 49 26 SW 1014,7 53 0,0
11.07.2020 10:00:00 28,7 15,2 23,1 30 16 46 25 WSW 1014,6 48 0,0
11.07.2020 09:00:00 25,5 18,7 21,2 29 16 50 27 WSW 1014,8 43 0,0
11.07.2020 08:00:00 23,3 17,7 16,5 13 7 20 11 SW 1015,2 53 0,0
11.07.2020 07:00:00 17,6 15,9 15,2 0 0 5 3 N 1015,2 39 0,0
11.07.2020 06:00:00 16,7 14,9 15,7 3 1 7 4 E 1014,7 37 0,0
11.07.2020 05:00:00 17,6 15,8 15,5 4 2 11 6 NNE 1014,8 33 0,0
11.07.2020 04:00:00 17,2 15,0 14,9 5 3 10 5 NNE 1014,8 37 0,0
11.07.2020 03:00:00 17,0 14,5 15,1 5 3 12 7 NNE 1014,9 45 0,0
11.07.2020 02:00:00 17,7 14,2 14,8 8 4 11 6 NNE 1014,9 56 0,0
11.07.2020 01:00:00 17,5 15,1 14,1 6 4 13 7 NE 1015,0 41 0,0
11.07.2020 00:00:00 17,4 15,2 14,6 7 4 9 5 NE 1015,0 45 0,0
10.07.2020 23:00:00 18,4 15,1 15,8 4 2 8 4 NE 1015,1 48 0,0
10.07.2020 22:00:00 20,0 15,6 17,5 3 2 8 4 SSW 1015,0 54 0,0
10.07.2020 21:00:00 24,6 16,8 21,5 4 2 16 8 SE 1014,7 20 0,0
10.07.2020 20:00:00 27,6 16,2 26,9 6 3 22 12 SE 1014,4 20 0,0
10.07.2020 19:00:00 28,9 20,6 28,9 14 8 29 16 ENE 1014,3 53 0,0
10.07.2020 18:00:00 31,1 20,4 31,7 18 10 36 19 NE 1014,0 49 0,0
10.07.2020 17:00:00 34,5 3,1 34,5 9 5 29 15 SSW 1014,4 53 0,0
10.07.2020 16:00:00 33,9 9,9 38,4 17 9 34 18 SW 1014,7 20 0,0
10.07.2020 15:00:00 33,4 13,5 39,8 18 10 35 19 SW 1014,9 20 0,0
10.07.2020 14:00:00 32,0 15,1 39,2 24 13 39 21 SW 1015,4 20 0,0
10.07.2020 13:00:00 30,5 17,9 37,7 28 15 42 23 SW 1015,6 19 0,0
10.07.2020 12:00:00 30,1 18,5 35,4 20 11 36 20 SSW 1016,0 46 0,0
10.07.2020 11:00:00 29,3 18,7 30,3 21 11 32 17 SSW 1016,5 57 0,0
10.07.2020 10:00:00 29,6 17,4 26,3 10 5 18 10 SSW 1016,3 53 0,0
10.07.2020 09:00:00 27,7 17,5 21,7 3 2 19 11 NNW 1016,4 51 0,0
10.07.2020 08:00:00 24,9 18,8 14,3 7 4 12 6 ENE 1016,0 46 0,0
10.07.2020 07:00:00 15,8 14,7 11,7 0 0 8 4 N 1015,8 46 0,0
10.07.2020 06:00:00 13,2 12,1 11,7 4 2 6 3 NE 1015,8 34 0,0
10.07.2020 05:00:00 13,4 11,8 12,0 4 2 9 5 N 1015,8 30 0,0
10.07.2020 04:00:00 14,5 12,7 12,2 3 2 7 4 NNE 1016,0 32 0,0
10.07.2020 03:00:00 15,2 13,4 12,9 3 2 9 5 N 1016,2 40 0,0
10.07.2020 02:00:00 15,9 13,4 13,7 5 3 8 4 NE 1016,5 46 0,0
10.07.2020 01:00:00 16,5 13,6 14,7 0 0 8 4 N 1016,8 50 0,0
10.07.2020 00:00:00 17,5 13,8 15,5 4 2 8 5 NE 1017,0 54 0,0
09.07.2020 23:00:00 19,7 14,3 16,7 6 4 8 4 NNE 1016,9 59 0,0
09.07.2020 22:00:00 21,2 14,6 18,0 4 2 8 4 NNE 1016,9 58 0,0
09.07.2020 21:00:00 24,1 15,6 21,0 5 3 11 6 S 1016,5 54 0,0
09.07.2020 20:00:00 27,9 15,2 24,4 8 4 21 11 WSW 1016,3 55 0,0
09.07.2020 19:00:00 29,8 15,5 26,7 10 5 23 13 SW 1016,3 57 0,0
09.07.2020 18:00:00 30,1 16,1 30,0 14 8 27 14 SW 1016,5 56 0,0
09.07.2020 17:00:00 30,5 18,6 33,5 15 8 34 18 SW 1016,7 56 0,0
09.07.2020 16:00:00 30,9 17,6 37,9 21 12 39 21 SSW 1016,8 53 0,0
09.07.2020 15:00:00 33,6 17,3 40,6 25 13 37 20 SW 1016,8 60 0,0
09.07.2020 14:00:00 33,2 14,3 40,5 11 6 29 16 E 1016,8 60 0,0
09.07.2020 13:00:00 32,4 14,1 38,4 10 5 28 15 SSE 1017,0 60 0,0
09.07.2020 12:00:00 31,7 14,4 36,0 9 5 24 13 NE 1017,4 60 0,0
09.07.2020 11:00:00 30,6 14,7 32,7 11 6 26 14 E 1017,3 59 0,0
09.07.2020 10:00:00 29,5 16,0 27,5 13 7 26 14 E 1017,1 19 0,0
09.07.2020 09:00:00 27,6 14,9 21,3 14 8 27 15 ENE 1017,2 48 0,0
09.07.2020 08:00:00 24,8 17,0 14,9 10 6 17 9 ENE 1017,1 49 0,0
09.07.2020 07:00:00 16,8 14,4 12,7 4 2 7 4 NE 1017,0 47 0,0
09.07.2020 06:00:00 13,7 12,4 12,6 3 1 7 4 NE 1016,9 41 0,0
09.07.2020 05:00:00 14,6 12,6 13,2 4 2 8 4 NE 1016,8 47 0,0
09.07.2020 04:00:00 14,9 13,1 13,5 0 0 8 4 N 1016,6 43 0,0
09.07.2020 03:00:00 16,0 13,3 14,2 6 4 9 5 NE 1016,6 49 0,0
09.07.2020 02:00:00 16,6 13,7 14,5 3 1 7 4 ENE 1017,0 56 0,0
09.07.2020 01:00:00 16,9 14,4 15,1 3 2 7 4 SSW 1017,1 41 0,0
09.07.2020 00:00:00 18,2 14,3 16,0 2 1 8 4 N 1016,5 32 0,0
08.07.2020 23:00:00 21,2 14,4 18,0 6 4 11 6 NNE 1016,6 60 0,0
08.07.2020 22:00:00 22,3 13,9 19,1 6 3 9 5 NNE 1016,4 48 0,0
08.07.2020 21:00:00 25,2 18,4 22,3 5 3 12 7 NW 1015,7 42 0,0
08.07.2020 20:00:00 27,3 16,9 25,4 9 5 18 10 S 1015,6 51 0,0
08.07.2020 19:00:00 29,1 17,6 27,5 11 6 27 15 SSW 1015,3 49 0,0
08.07.2020 18:00:00 30,7 17,8 30,7 16 9 27 15 SSW 1015,4 53 0,0
08.07.2020 17:00:00 31,9 17,0 34,2 15 8 31 17 SW 1015,6 55 0,0
08.07.2020 16:00:00 32,6 18,8 37,2 16 8 32 17 WSW 1015,6 60 0,0
08.07.2020 15:00:00 31,9 17,8 38,4 16 8 29 16 NE 1015,6 60 0,0
08.07.2020 14:00:00 32,3 19,5 40,7 12 7 27 14 SW 1015,9 12 0,0
08.07.2020 13:00:00 30,6 20,5 38,1 15 8 27 15 SSW 1016,2 20 0,0
08.07.2020 12:00:00 29,6 21,3 34,2 18 10 28 15 SSW 1016,0 19 0,0
08.07.2020 11:00:00 29,3 20,7 31,4 15 8 24 13 SW 1015,5 19 0,0
08.07.2020 10:00:00 29,5 18,0 25,7 8 4 14 7 ENE 1015,4 33 0,0
08.07.2020 09:00:00 27,1 20,0 21,9 3 2 8 4 E 1015,1 36 0,0
08.07.2020 08:00:00 23,9 20,6 16,3 4 2 8 4 NE 1015,0 19 0,0
08.07.2020 07:00:00 17,7 16,9 14,3 3 1 7 4 ENE 1014,9 30 0,0
08.07.2020 06:00:00 15,5 14,5 14,4 4 2 6 3 NNE 1014,5 18 0,2
08.07.2020 05:00:00 16,4 15,3 14,6 4 2 8 4 NNE 1014,1 17 0,0
08.07.2020 04:00:00 16,5 15,5 15,0 2 1 5 3 ESE 1014,4 21 0,0
08.07.2020 03:00:00 16,7 15,4 15,6 3 2 5 3 N 1014,5 18 0,0
08.07.2020 02:00:00 17,9 16,9 16,1 2 1 8 4 NE 1014,5 20 0,0
08.07.2020 01:00:00 18,5 16,8 17,0 4 2 9 5 NE 1014,2 27 0,0
08.07.2020 00:00:00 19,5 17,8 17,5 5 3 9 5 NNE 1013,9 29 0,0
07.07.2020 23:00:00 20,4 17,6 18,2 4 2 7 4 NE 1013,7 32 0,0
07.07.2020 22:00:00 22,1 19,6 20,1 2 1 14 8 SSE 1013,3 25 0,0
07.07.2020 21:00:00 23,7 19,8 23,0 8 4 16 9 S 1012,7 18 0,0
07.07.2020 20:00:00 27,5 13,8 24,2 10 6 21 11 SSW 1012,1 18 0,0
07.07.2020 19:00:00 28,9 14,3 26,6 12 7 22 12 SSW 1011,8 34 0,0
07.07.2020 18:00:00 30,3 14,4 29,8 12 6 25 14 SSW 1011,8 29 0,0
07.07.2020 17:00:00 30,1 14,2 32,9 14 8 28 15 SSW 1011,7 19 0,0
07.07.2020 16:00:00 30,2 15,1 36,2 11 6 26 14 SW 1011,6 15 0,0
07.07.2020 15:00:00 29,6 14,6 39,1 14 8 29 16 SSW 1011,6 13 0,0
07.07.2020 14:00:00 28,9 16,8 38,7 16 9 28 15 SW 1011,2 13 0,0
07.07.2020 13:00:00 27,5 17,1 37,0 13 7 32 17 SW 1011,2 16 0,0
07.07.2020 12:00:00 27,0 17,5 33,4 16 9 31 17 SSW 1011,0 15 0,0
07.07.2020 11:00:00 26,6 17,4 29,2 16 9 28 15 SSW 1010,5 17 0,0
07.07.2020 10:00:00 25,6 17,3 24,8 17 9 31 17 SSW 1009,9 18 0,0
07.07.2020 09:00:00 25,5 17,2 20,9 13 7 24 13 SSW 1009,2 18 0,0
07.07.2020 08:00:00 23,3 19,0 15,7 9 5 17 9 SW 1008,6 15 0,0
07.07.2020 07:00:00 18,2 17,7 13,9 0 0 5 3 N 1008,3 18 0,0
07.07.2020 06:00:00 15,5 14,5 13,9 3 2 8 4 WNW 1007,7 17 0,0

tt = temperature
td = dewpoint
tt 5cm = temperature 5cm
ff = wind speed
fx = gusts
dd = wind direction
ppp = reduced air pressure
vv = visibility
rr = precipitation

Next stations